Home   Weather   Odesa   Past weeks

Flag for Ukraine Past Weather in Odesa, Ukraine — Yesterday and Last 2 Weeks

Now
59 °F

Sunny.


Feels Like: 57 °F
Forecast: 50 / 64 °F
Wind: 10 mph from North

Location: Odesa Airport

Current Time: Sep 26, 2016 at 11:53:30 AM

Latest Report: Sep 26, 2016 at 11:00 AM


Visibility: 10 mi

Pressure: 30.12 "Hg

Humidity: 59%

Dew Point: 45 °F

Location of OdesaLocation

Past Weather in Odesa — Graph

°F

Odesa Temperature Yesterday

Maximum temperature yesterday: 66 °F (at 2:30 PM)
Minimum temperature yesterday: 48 °F (at 7:00 AM)
Average temperature yesterday: 57 °F

High & Low Weather Summary for the Past Weeks

 TemperatureHumidityPressure
High86 °F (Sep 13, 2:00 PM)100% (Sep 17, 6:00 AM)30.24 "Hg (Sep 17, 6:00 AM)
Low43 °F (Sep 21, 3:00 AM)23% (Sep 14, 5:00 PM)29.50 "Hg (Sep 20, 8:00 AM)
Average62 °F67%29.98 "Hg
* Reported Sep 11 10:00 AM — Sep 26 10:30 AM, Odesa, Weather by CustomWeather, © 2016

Note: Actual official high and low records may vary slightly from our data, if they occured in-between our weather recording intervals... More about our weather records

Advertising

Odesa Weather History for the Previous 24 Hours

Scroll right to see more
 ConditionsComfort  
Time TempWeatherWind HumidityBarometerVisibility
10:30 AM
Mon, Sep 26
57 °FSunny.8 mph63%30.12 "Hg10 mi
10:00 AM57 °FSunny.8 mph59%30.12 "Hg10 mi
9:30 AM55 °FSunny.8 mph67%30.12 "Hg10 mi
9:00 AM55 °FSunny.8 mph72%30.09 "Hg10 mi
8:30 AM54 °FPassing clouds.8 mph77%30.09 "HgN/A
8:00 AM54 °FSunny.8 mph77%30.09 "Hg10 mi
7:30 AM54 °FSunny.8 mph77%30.09 "Hg10 mi
7:00 AM54 °FSunny.8 mph77%30.09 "Hg10 mi
6:30 AM54 °FClear.8 mph77%30.09 "Hg10 mi
6:00 AM54 °FClear.8 mph77%30.07 "Hg10 mi
5:30 AM55 °FClear.8 mph77%30.07 "Hg10 mi
5:00 AM55 °FClear.8 mph77%30.07 "Hg10 mi
4:30 AM55 °FClear.8 mph77%30.07 "Hg10 mi
4:00 AM55 °FPassing clouds.6 mph82%30.07 "HgN/A
3:30 AM55 °FPassing clouds.6 mph82%30.07 "HgN/A
3:00 AM54 °FPartly cloudy.6 mph88%30.07 "HgN/A
2:30 AM54 °FPassing clouds.6 mph88%30.07 "HgN/A
2:00 AM52 °FPassing clouds.3 mph94%30.07 "HgN/A
1:30 AM52 °FPartly cloudy.3 mph94%30.07 "Hg4 mi
1:00 AM52 °FPartly cloudy.3 mph94%30.07 "Hg6 mi
12:30 AM52 °FPassing clouds.No wind94%30.07 "HgN/A
12:00 AM50 °FPassing clouds.No wind100%30.07 "Hg5 mi
11:30 PM
Sun, Sep 25
52 °FPassing clouds.1 mph94%30.07 "HgN/A
11:00 PM54 °FPartly cloudy.No wind88%30.07 "HgN/A
10:30 PM54 °FPartly cloudy.No wind88%30.07 "HgN/A
10:00 PM55 °FPartly cloudy.3 mph82%30.07 "HgN/A
9:30 PM55 °FPartly cloudy.3 mph82%30.07 "HgN/A
9:00 PM57 °FPartly cloudy.6 mph77%30.07 "HgN/A
8:30 PM57 °FPartly cloudy.3 mph77%30.07 "HgN/A
8:00 PM57 °FPartly cloudy.3 mph77%30.07 "HgN/A
7:30 PM59 °FPassing clouds.1 mph72%30.07 "HgN/A
7:00 PM61 °FPartly cloudy.3 mph68%30.07 "HgN/A
6:30 PM63 °FBroken clouds.3 mph64%30.07 "HgN/A
6:00 PM64 °FPassing clouds.3 mph60%30.07 "HgN/A
5:30 PM66 °FSunny.6 mph52%30.07 "Hg10 mi
5:00 PM66 °FSunny.8 mph52%30.07 "Hg10 mi
4:30 PM64 °FBroken clouds.6 mph56%30.07 "HgN/A
4:00 PM64 °FBroken clouds.6 mph60%30.07 "HgN/A
3:30 PM64 °FBroken clouds.6 mph60%30.07 "HgN/A
3:00 PM66 °FBroken clouds.6 mph56%30.07 "HgN/A
2:30 PM66 °FBroken clouds.3 mph56%30.09 "HgN/A
2:00 PM64 °FBroken clouds.No wind56%30.09 "HgN/A
1:30 PM64 °FBroken clouds.No wind56%30.09 "HgN/A
1:00 PM64 °FBroken clouds.1 mph60%30.09 "HgN/A
12:30 PM64 °FBroken clouds.3 mph60%30.12 "HgN/A
12:00 PM63 °FBroken clouds.6 mph64%30.12 "HgN/A
11:30 AM64 °FScattered clouds.6 mph60%30.12 "HgN/A
11:00 AM63 °FScattered clouds.10 mph64%30.12 "HgN/A
Weather by CustomWeather, © 2016

See weather overviewHow to use our weather pages